Location: Bieg
(49.3499°N, 10.3835°E)
Time: 21:49:55
(UTC+00:00)

USA 267 - Pass Details

Date: 23 May 2024
Orbit: 1100 x 1107 km, 123.0° (Epoch: 21 May)

Event Time Altitude Azimuth Distance (km) Brightness Sun altitude
Rises 00:14:57 0° 57° (ENE) 3,922 6.9 -18.8°
Reaches altitude 10° 00:17:26 10° 56° (NE) 2,963 6.2 -18.7°
Maximum altitude 00:23:58 76° 332° (NNW) 1,135 3.4 -18.4°
Enters shadow 00:30:21 11° 249° (WSW) 2,907 5.1 -18.0°
